Weather History for Chipley, FL

Change the Weather History Date:

Monday, February 18, 2013

  Actual Average (KMAI) Record (KMAI)
Temperature  
Mean Temperature 58 °F 55 °F  
Max Temperature 64 °F 67 °F 80 °F (2000)
Min Temperature 51 °F 43 °F 28 °F (2013)
Degree Days  
Heating Degree Days 8    
Month to date heating degree days  
Since 1 July heating degree days  
Cooling Degree Days 0    
Month to date cooling degree days  
Year to date cooling degree days  
Growing Degree Days 8 (Base 50)    
Moisture  
Dew Point 49 °F    
Average Humidity 68    
Maximum Humidity 82    
Minimum Humidity 54    
Precipitation  
Precipitation 0.00 in 0.18 in 4.56 in (2012)
Month to date precipitation 3.05  
Year to date precipitation 8.09  
Sea Level Pressure  
Sea Level Pressure 30.14 in    
Wind  
Wind Speed 5 mph (SE)    
Max Wind Speed 16 mph    
Max Gust Speed 25 mph    
Visibility 10 miles    
Events      
T = Trace of Precipitation, MM = Missing Value Source: NWS Daily Summary

Daily Weather History Graph

Daily Weather History Graph

Search for Another Location

Airport:

Trip Planner

Search our weather history database for the weather conditions in past years. The results will help you decide how hot, cold, wet, or windy it might be!

Date:

Astronomy

Feb. 18, 2013 Rise Set
Actual Time 6:20 AM CST 5:32 PM CST
Civil Twilight 5:55 AM CST 5:57 PM CST
Nautical Twilight 5:27 AM CST 6:25 PM CST
Astronomical Twilight 4:59 AM CST 6:53 PM CST
Moon 11:29 AM CST (2/18) 12:48 AM CST (2/18)
Length of Visible Light 12h 01m
Length of Day
11h 12m
First Quarter, 58% of the Moon is Illuminated
Feb 18
First Quarter
Feb 25
Full
Mar 4
Last Quarter
Mar 11
New
Mar 19
First Quarter

Hourly Weather History & Observations

Time (CST) Temp. Dew Point Humidity Pressure Visibility Wind Dir Wind Speed Gust Speed Precip Events Conditions
12:15 AM 51.8 °F 35.6 °F 54% 30.26 in 10.0 mi South 3.5 mph - N/A   Clear
12:35 AM 51.8 °F 35.6 °F 54% 30.26 in 10.0 mi SSE 4.6 mph - N/A   Clear
12:55 AM 51.8 °F 37.4 °F 58% 30.25 in 10.0 mi Calm Calm - N/A   Clear
1:15 AM 51.8 °F 37.4 °F 58% 30.25 in 10.0 mi South 4.6 mph - N/A   Clear
1:35 AM 51.8 °F 37.4 °F 58% 30.24 in 10.0 mi South 5.8 mph - N/A   Clear
1:55 AM 51.8 °F 39.2 °F 62% 30.23 in 10.0 mi Calm Calm - N/A   Clear
2:15 AM 51.8 °F 39.2 °F 62% 30.23 in 10.0 mi Calm Calm - N/A   Clear
2:35 AM 51.8 °F 41.0 °F 67% 30.22 in 10.0 mi East 3.5 mph - N/A   Clear
2:55 AM 51.8 °F 41.0 °F 67% 30.21 in 10.0 mi East 3.5 mph - N/A   Clear
3:15 AM 51.8 °F 41.0 °F 67% 30.21 in 10.0 mi ENE 5.8 mph - N/A   Clear
3:35 AM 51.8 °F 42.8 °F 71% 30.21 in 10.0 mi East 4.6 mph - N/A   Clear
3:55 AM 51.8 °F 42.8 °F 71% 30.21 in 10.0 mi East 3.5 mph - N/A   Clear
4:15 AM 53.6 °F 41.0 °F 62% 30.20 in 10.0 mi East 5.8 mph - N/A   Clear
4:35 AM 53.6 °F 42.8 °F 67% 30.20 in 10.0 mi East 5.8 mph - N/A   Clear
4:55 AM 53.6 °F 42.8 °F 67% 30.20 in 10.0 mi East 6.9 mph - N/A   Clear
5:15 AM 53.6 °F 42.8 °F 67% 30.20 in 10.0 mi East 4.6 mph - N/A   Clear
5:35 AM 53.6 °F 42.8 °F 67% 30.20 in 10.0 mi East 4.6 mph - N/A   Clear
5:55 AM 53.6 °F 42.8 °F 67% 30.19 in 10.0 mi East 5.8 mph - N/A   Clear
6:15 AM 53.6 °F 42.8 °F 67% 30.20 in 10.0 mi ENE 3.5 mph - N/A   Clear
6:35 AM 53.6 °F 44.6 °F 72% 30.19 in 10.0 mi East 4.6 mph - N/A   Clear
6:55 AM 53.6 °F 44.6 °F 72% 30.19 in 10.0 mi SE 5.8 mph - N/A   Clear
7:15 AM 53.6 °F 44.6 °F 72% 30.19 in 10.0 mi SE 6.9 mph - N/A   Clear
7:35 AM 53.6 °F 44.6 °F 72% 30.20 in 10.0 mi ESE 4.6 mph - N/A   Clear
7:55 AM 55.4 °F 46.4 °F 72% 30.20 in 10.0 mi ESE 3.5 mph - N/A   Clear
8:15 AM 57.2 °F 46.4 °F 67% 30.20 in 10.0 mi ESE 3.5 mph - N/A   Clear
8:35 AM 57.2 °F 46.4 °F 67% 30.21 in 10.0 mi SSE 5.8 mph - N/A   Clear
8:55 AM 60.8 °F 48.2 °F 63% 30.21 in 10.0 mi SSE 5.8 mph - N/A   Scattered Clouds
9:15 AM 60.8 °F 48.2 °F 63% 30.22 in 10.0 mi SE 5.8 mph - N/A   Overcast
9:35 AM 60.8 °F 48.2 °F 63% 30.22 in 10.0 mi SE 3.5 mph - N/A   Overcast
9:55 AM 60.8 °F 48.2 °F 63% 30.22 in 10.0 mi SE 3.5 mph - N/A   Overcast
10:15 AM 60.8 °F 48.2 °F 63% 30.21 in 10.0 mi SSE 4.6 mph - N/A   Overcast
10:35 AM 60.8 °F 48.2 °F 63% 30.21 in 10.0 mi SE 3.5 mph - N/A   Overcast
10:55 AM 60.8 °F 48.2 °F 63% 30.21 in 10.0 mi SE 5.8 mph - N/A   Overcast
11:15 AM 62.6 °F 48.2 °F 59% 30.20 in 10.0 mi ESE 5.8 mph - N/A   Mostly Cloudy
11:35 AM 64.4 °F 50.0 °F 59% 30.19 in 10.0 mi ESE 5.8 mph - N/A   Overcast
11:55 AM 64.4 °F 48.2 °F 56% 30.17 in 10.0 mi SE 4.6 mph 16.1 mph N/A   Overcast
12:15 PM 62.6 °F 48.2 °F 59% 30.17 in 10.0 mi ESE 5.8 mph 19.6 mph N/A   Overcast
12:35 PM 64.4 °F 50.0 °F 59% 30.15 in 10.0 mi SE 6.9 mph - N/A   Overcast
12:55 PM 64.4 °F 50.0 °F 59% 30.14 in 10.0 mi SE 6.9 mph - N/A   Overcast
1:15 PM 64.4 °F 50.0 °F 59% 30.13 in 10.0 mi SSE 6.9 mph - N/A   Overcast
1:35 PM 64.4 °F 50.0 °F 59% 30.13 in 10.0 mi SSE 4.6 mph 17.3 mph N/A   Overcast
1:55 PM 64.4 °F 50.0 °F 59% 30.12 in 10.0 mi SSE 8.1 mph - N/A   Overcast
2:15 PM 62.6 °F 51.8 °F 68% 30.11 in 10.0 mi East 3.5 mph 18.4 mph N/A   Overcast
2:35 PM 62.6 °F 50.0 °F 63% 30.10 in 10.0 mi SE 4.6 mph - N/A   Overcast
2:55 PM 62.6 °F 50.0 °F 63% 30.09 in 10.0 mi SSE 4.6 mph 17.3 mph N/A   Overcast
3:15 PM 62.6 °F 51.8 °F 68% 30.09 in 10.0 mi SSE 3.5 mph - N/A   Overcast
3:35 PM 62.6 °F 51.8 °F 68% 30.08 in 10.0 mi SE 5.8 mph - N/A   Overcast
3:55 PM 62.6 °F 51.8 °F 68% 30.07 in 10.0 mi SSE 4.6 mph - N/A   Overcast
4:15 PM 62.6 °F 51.8 °F 68% 30.06 in 10.0 mi East 4.6 mph - N/A   Overcast
4:35 PM 62.6 °F 51.8 °F 68% 30.06 in 10.0 mi Calm Calm - N/A   Overcast
4:55 PM 62.6 °F 53.6 °F 72% 30.06 in 10.0 mi South 4.6 mph - N/A   Overcast
5:15 PM 62.6 °F 53.6 °F 72% 30.06 in 10.0 mi Calm Calm - N/A   Overcast
5:35 PM 62.6 °F 53.6 °F 72% 30.05 in 10.0 mi ESE 3.5 mph - N/A   Overcast
5:55 PM 62.6 °F 53.6 °F 72% 30.05 in 10.0 mi SSE 5.8 mph - N/A   Overcast
6:15 PM 62.6 °F 53.6 °F 72% 30.05 in 10.0 mi SSE 6.9 mph - N/A   Overcast
6:35 PM 62.6 °F 53.6 °F 72% 30.05 in 10.0 mi SSE 9.2 mph 20.7 mph N/A   Overcast
6:55 PM 62.6 °F 53.6 °F 72% 30.04 in 10.0 mi South 8.1 mph - N/A   Overcast
7:15 PM 62.6 °F 55.4 °F 77% 30.05 in 10.0 mi South 10.4 mph - N/A   Mostly Cloudy
7:35 PM 62.6 °F 55.4 °F 77% 30.05 in 10.0 mi SSE 6.9 mph - N/A   Overcast
7:55 PM 62.6 °F 55.4 °F 77% 30.04 in 10.0 mi South 8.1 mph - N/A   Overcast
8:15 PM 62.6 °F 55.4 °F 77% 30.04 in 10.0 mi South 6.9 mph - N/A   Mostly Cloudy
8:35 PM 62.6 °F 55.4 °F 77% 30.04 in 9.0 mi South 8.1 mph - N/A   Mostly Cloudy
8:55 PM 62.6 °F 55.4 °F 77% 30.03 in 10.0 mi South 10.4 mph - N/A   Mostly Cloudy
9:15 PM 62.6 °F 57.2 °F 82% 30.02 in 10.0 mi South 15.0 mph 20.7 mph N/A   Mostly Cloudy
9:35 PM 62.6 °F 57.2 °F 82% 30.02 in 10.0 mi South 15.0 mph 23.0 mph N/A   Overcast
9:55 PM 62.6 °F 57.2 °F 82% 30.03 in 10.0 mi South 12.7 mph 19.6 mph N/A   Overcast
10:15 PM 62.6 °F 57.2 °F 82% 30.03 in 10.0 mi South 16.1 mph 23.0 mph N/A   Mostly Cloudy
10:35 PM 64.4 °F 57.2 °F 77% 30.02 in 10.0 mi South 13.8 mph 20.7 mph N/A   Overcast
10:55 PM 62.6 °F 57.2 °F 82% 30.01 in 10.0 mi SSE 15.0 mph 25.3 mph N/A   Overcast
11:15 PM 62.6 °F 57.2 °F 82% 30.01 in 10.0 mi South 12.7 mph 19.6 mph N/A   Mostly Cloudy
11:35 PM 64.4 °F 57.2 °F 77% 30.01 in 10.0 mi South 12.7 mph 21.9 mph N/A   Overcast
11:55 PM 64.4 °F 57.2 °F 77% 30.01 in 10.0 mi South 15.0 mph 24.2 mph N/A   Overcast